CZ-2C DEB, 43373

Orbit data source: Space-Track

CZ-2C DEB, 43373 is space debris in HEO originally from a launch on Mon, 29 Dec 2003 UTC launched from the Xichang Space Center, China (XSC). Debris objects in space refer to the collection of defunct objects orbiting the Earth. Examples of debris include non-operational satellites, rocket bodies, and fragments generated from explosions, collisions, or faulty payload assembly.

Loading next visibility...
Identifier
43373, 2003-061C
Orbit
HEO
Country
Flag of CNCN / PRC
Related business
Manufacturer
DFH
Mission
Spacecraft
Bus & Motor
Unknown
Mass
Unknown
Launch date (UTC)
2003-12-29 (22 years ago)
Launch vehicle
Unknown
Launch site
Xichang Space Center, China (XSC)
Object type
Payload
Rocket body
Debris
Shape & HBR
Unknown shape, 0.2 m
Radar Cross Section
Medium (>0.1 m² and <1 m²)

Expand to show TLE details & history
Last TLE update: 1 week ago

TLE from 1 week ago
0 CZ-2C DEB
1 43373U 03061C   26166.26267543  .00033165  00000-0  13231-2 0  9996
2 43373  18.7523 333.0231 6157337 132.1500 299.7789  3.87287542229287
Epoch: 2026-06-15T06:18Z
TLE epoch observation values (Epoch: 2026-06-15T06:18:15.157Z)
Latitude
-0.00011°
Longitude
-25.11453°
Altitude
11,721.747 km
Speed
4.558 km/s
True Right ascension
22h 12m 00s
True Declination
0° 00' 00"
Sunlit
Object was in daylight at epoch
Visualization orbit readout
Latitude
Unknown
Longitude
Unknown
Altitude
Unknown
Speed
Unknown
Apparent Right ascension
Unknown
Apparent Declination
Unknown
Sunlit
N/A
Visualization observer readout
Local Sidereal Time
21:24:32
Azimuth
Unknown
Elevation
Unknown
Doppler factor
Unknown
Orbital elements
Apogee altitude
21,303.737 km
Perigee altitude
205.381 km
Semi-major axis
17,132.696 km
Eccentricity
0.61573
Inclination
18.7523°
RAAN
333.0231°
Arg. of periapsis
132.15°
True anomaly
227.89841°
Mean anomaly
299.7789°
Eccentric anomaly
264.65345°
Mean motion
0.96784 °/min
Orbital period
371.96 mins
BSTAR
0.0013231
Loading maneuver chart data...
Computing Atmospheric mass density...
Loading historical data...
Loading historical data...
Loading historical data...
Loading historical data...
Loading historical data...
Loading historical data...
Loading historical data...
Other satellites on launch #61 in the year 2003 (2003-12-29 UTC)

Documentation

Showing up to 5 results
|